Date,TemperatureHighF,TemperatureAvgF,TemperatureLowF,DewpointHighF,DewpointAvgF,DewpointLowF,HumidityHigh,HumidityAvg,HumidityLow,PressureMaxIn,PressureMinIn,WindSpeedMaxMPH,WindSpeedAvgMPH,GustSpeedMaxMPH,PrecipitationSumIn
2012-1-1,58.5,49.8,41.5,35.2,30.1,21.4,69,48,24,30.36,29.90,18,5,18,0.00
2012-1-2,51.8,42.9,36.1,28.0,23.2,16.1,69,48,25,30.50,30.34,17,3,17,0.00
2012-1-3,57.4,43.1,29.8,29.8,24.9,19.6,70,50,32,30.34,29.97,16,4,16,0.00
2012-1-4,61.3,47.7,39.4,41.2,34.3,26.6,83,61,41,30.08,29.95,11,3,12,0.00
2012-1-5,67.1,49.8,36.9,41.7,34.4,28.3,81,57,33,30.07,29.82,11,2,12,0.00
2012-1-6,56.7,52.7,45.7,54.2,48.2,36.0,93,85,63,29.82,29.74,12,6,13,0.00
2012-1-7,56.7,56.7,56.7,54.1,54.1,54.1,91,91,91,29.75,29.75,7,7,7,0.00
2012-1-8,56.7,56.7,56.7,54.1,54.1,54.1,91,91,91,29.75,29.75,7,7,7,0.00
2012-1-9,56.7,53.3,44.8,54.1,50.6,25.4,92,91,34,30.29,29.74,7,5,7,0.09
2012-1-10,48.4,45.6,43.5,46.6,43.4,40.0,94,92,88,29.74,29.56,0,0,0,0.30
2012-1-11,63.5,48.6,37.8,51.2,41.9,34.4,91,78,63,29.69,29.38,0,0,0,0.00
2012-1-12,43.5,35.6,31.3,34.0,17.9,10.5,75,50,30,30.01,29.69,0,0,0,0.00
2012-1-13,55.2,40.6,30.0,34.7,26.7,16.4,70,58,40,30.04,29.94,0,0,0,0.00
2012-1-14,66.0,47.7,33.4,39.0,31.8,26.1,76,57,30,30.07,29.97,0,0,0,0.00
2012-1-15,64.8,52.8,39.7,54.1,38.9,30.8,79,60,39,30.07,29.84,0,0,0,0.00
2012-1-16,68.4,64.2,60.4,62.7,59.4,53.9,89,84,79,29.85,29.64,0,0,0,0.00
2012-1-17,67.3,51.4,36.3,63.4,39.2,22.8,91,64,42,30.11,29.66,0,0,0,0.00
2012-1-18,55.8,41.6,30.4,34.2,28.0,21.6,72,59,43,30.11,29.76,0,0,0,0.00
2012-1-19,70.2,53.4,39.6,46.7,40.1,29.8,85,63,39,29.76,29.59,0,0,0,0.00
2012-1-20,76.1,62.5,47.7,61.8,54.5,37.8,96,76,55,29.65,29.42,0,0,0,0.00
2012-1-21,54.1,45.7,37.9,42.5,36.7,30.2,83,71,60,29.85,29.61,0,0,0,0.00
2012-1-22,72.5,60.3,49.3,62.7,48.3,27.5,91,70,21,29.72,29.37,0,0,0,0.00
2012-1-23,65.5,51.6,42.3,38.7,34.8,30.6,74,54,32,29.91,29.72,0,0,0,0.00
2012-1-24,64.4,51.6,39.7,49.3,38.2,30.2,90,63,38,29.85,29.66,0,0,0,0.83
2012-1-25,52.9,48.9,47.3,50.0,46.5,44.8,94,92,89,29.73,29.53,0,0,0,2.57
2012-1-26,58.5,50.0,45.5,46.2,42.2,36.3,94,77,45,29.80,29.60,0,0,0,0.29
2012-1-27,66.6,51.9,38.5,46.9,40.3,32.5,87,66,42,29.90,29.62,0,0,0,0.01
2012-1-28,51.8,45.1,38.7,35.1,29.2,25.0,67,54,38,30.24,29.91,0,0,0,0.00
2012-1-29,61.3,45.4,32.4,36.7,30.6,24.0,77,58,37,30.22,30.03,0,0,0,0.00
2012-1-30,66.2,54.3,43.0,53.7,44.9,32.0,80,71,56,30.03,29.85,0,0,0,0.00
2012-1-31,72.5,63.2,58.5,61.0,57.0,52.8,90,81,65,29.89,29.74,0,0,0,0.00
2012-2-1,72.1,61.1,54.7,61.2,56.4,51.2,96,85,65,29.90,29.78,0,0,0,0.01
2012-2-2,68.9,59.4,48.0,61.1,55.0,44.8,92,86,75,29.90,29.76,0,0,0,0.01
2012-2-3,71.8,66.0,57.9,66.5,62.7,52.5,94,89,80,29.80,29.64,0,0,0,0.61
2012-2-4,57.9,50.4,43.9,52.4,42.6,34.9,86,75,61,30.06,29.79,0,0,0,0.01
2012-2-5,45.0,42.2,39.0,35.4,34.2,32.4,78,73,66,30.17,30.05,0,0,0,0.00
2012-2-6,56.5,45.3,36.1,42.4,37.1,31.4,85,74,56,30.13,29.93,0,0,0,0.00
2012-2-7,57.7,51.3,46.9,48.6,44.1,40.4,85,77,66,30.11,29.94,0,0,0,0.03
2012-2-8,46.6,43.4,39.6,41.9,37.4,34.9,89,80,73,30.26,30.11,0,0,0,0.00
2012-2-9,59.0,47.3,35.6,44.7,38.3,30.0,85,72,56,30.12,29.86,0,0,0,0.00
2012-2-10,56.1,48.0,35.1,46.2,40.9,27.6,91,77,61,30.13,29.81,0,0,0,0.13
2012-2-11,36.3,31.6,28.4,28.1,18.6,14.3,76,59,42,30.36,30.13,0,0,0,0.00
2012-2-12,44.6,36.4,28.2,30.8,20.3,16.3,79,53,38,30.38,29.99,0,0,0,0.01
2012-2-13,45.1,40.1,35.8,42.5,36.3,30.4,91,86,80,29.99,29.60,0,0,0,0.20
2012-2-14,61.7,50.4,44.6,54.4,47.1,42.1,94,89,76,29.76,29.62,0,0,0,0.01
2012-2-15,73.8,59.2,50.4,61.9,48.2,32.8,95,71,39,29.79,29.61,0,0,0,0.03
2012-2-16,55.8,49.9,44.6,46.2,42.9,33.6,94,78,44,30.02,29.79,0,0,0,0.00
2012-2-17,63.0,53.7,47.3,53.5,46.5,42.9,91,77,59,29.92,29.74,0,0,0,0.02
2012-2-18,52.2,49.2,46.2,48.0,45.9,43.6,92,88,80,29.81,29.59,0,0,0,1.51
2012-2-19,61.5,49.1,39.4,49.5,43.0,36.4,92,80,63,29.92,29.78,0,0,0,0.00
2012-2-20,63.0,53.1,44.8,54.5,45.1,27.1,89,76,31,29.87,29.66,0,0,0,0.00
2012-2-21,69.4,54.6,39.2,54.8,39.9,29.5,85,60,34,29.92,29.64,0,0,0,0.00
2012-2-22,77.7,65.4,57.9,58.1,47.9,34.5,94,60,21,29.65,29.31,0,0,0,0.00
2012-2-23,80.2,65.1,54.5,50.4,41.1,32.8,78,45,22,29.61,29.19,0,0,0,0.00
2012-2-24,58.5,50.5,44.2,33.4,24.1,19.5,47,36,23,30.11,29.61,0,0,0,0.00
2012-2-25,65.5,50.3,35.8,31.6,26.0,23.0,66,41,23,30.16,29.92,0,0,0,0.00
2012-2-26,67.3,53.2,40.6,46.5,38.6,26.4,71,58,46,29.94,29.79,0,0,0,0.00
2012-2-27,72.3,60.9,54.3,55.2,49.9,45.1,79,68,50,30.06,29.91,0,0,0,0.00
2012-2-28,73.8,65.5,56.5,65.2,58.9,48.1,87,79,69,29.94,29.63,0,0,0,0.00
2012-2-29,75.7,67.3,53.6,64.6,43.4,27.7,91,48,17,29.79,29.66,0,0,0,0.02
2012-3-1,78.1,62.8,45.0,66.4,53.0,34.9,88,71,53,29.69,29.38,0,0,0,0.00
2012-3-2,70.2,63.2,50.4,66.4,48.3,35.6,90,61,34,29.69,29.36,0,0,0,0.00
2012-3-3,60.4,50.6,41.7,36.6,30.9,25.4,74,49,27,29.91,29.69,0,0,0,0.00
2012-3-4,73.8,56.0,39.2,35.5,30.7,24.0,66,42,17,29.95,29.84,0,0,0,0.00
2012-3-5,77.7,60.8,46.6,45.4,38.5,33.6,65,46,23,30.08,29.95,0,0,0,0.00
2012-3-6,72.1,62.2,52.3,55.1,49.3,40.9,83,64,48,29.97,29.75,0,0,0,0.00
2012-3-7,70.2,66.6,63.1,64.0,59.1,54.9,86,77,69,29.77,29.66,0,0,0,0.00
2012-3-8,70.9,58.8,44.1,67.8,54.9,37.6,93,87,65,30.08,29.67,0,0,0,0.40
2012-3-9,53.8,47.1,41.2,38.3,33.8,29.4,81,61,44,30.26,30.08,0,0,0,0.00
2012-3-10,55.8,51.0,47.7,47.9,41.0,33.6,90,69,51,30.11,29.84,0,0,0,0.77
2012-3-11,67.8,56.6,50.7,58.4,52.4,47.9,95,86,68,29.85,29.69,0,0,0,0.25
2012-3-12,87.3,64.6,54.0,64.8,56.7,50.5,95,77,45,29.82,29.72,0,0,0,0.01
2012-3-13,78.3,69.2,63.0,66.4,63.5,60.3,95,83,63,29.91,29.80,0,0,0,0.00
2012-3-14,78.8,71.2,66.4,66.1,64.4,62.3,91,80,64,29.92,29.80,0,0,0,0.00
2012-3-15,80.2,72.2,66.6,67.1,64.7,62.3,92,78,60,29.92,29.82,0,0,0,0.00
2012-3-16,79.5,71.8,66.2,67.5,64.8,62.9,91,79,62,29.90,29.77,0,0,0,0.00
2012-3-17,81.0,71.8,66.2,65.6,62.8,59.8,88,74,54,29.83,29.71,0,0,0,0.04
2012-3-18,77.0,70.9,66.4,67.4,64.1,61.3,88,79,70,29.79,29.60,0,0,0,0.00
2012-3-19,80.1,72.5,60.1,66.1,63.7,56.2,89,75,56,29.66,29.39,0,0,0,1.88
2012-3-20,64.4,59.6,52.7,57.7,54.8,50.0,93,84,76,29.62,29.43,0,0,0,2.55
2012-3-21,66.6,59.9,53.4,54.5,46.8,41.6,88,63,41,29.61,29.51,0,0,0,0.00
2012-3-22,70.2,56.4,52.7,55.5,49.0,46.3,84,77,58,29.74,29.54,0,0,0,0.12
2012-3-23,77.9,61.4,48.2,53.4,48.7,43.9,88,65,42,29.82,29.72,0,0,0,0.00
2012-3-24,84.0,66.7,51.8,59.8,53.3,45.8,83,64,42,29.84,29.74,0,0,0,0.00
2012-3-25,85.5,69.1,55.8,61.4,55.9,49.3,84,65,42,29.87,29.77,0,0,0,0.00
2012-3-26,85.6,70.9,56.3,60.8,55.8,49.0,83,61,39,29.85,29.74,0,0,0,0.00
2012-3-27,81.7,70.5,60.6,61.4,57.5,53.2,83,65,46,29.84,29.75,0,0,0,0.00
2012-3-28,79.9,70.2,63.0,66.1,61.6,56.9,88,75,58,29.84,29.70,0,0,0,0.00
2012-3-29,80.4,69.7,62.1,68.0,62.9,56.7,93,80,61,29.73,29.60,0,0,0,0.00
2012-3-30,82.8,72.6,66.6,70.5,66.1,62.6,94,81,62,29.65,29.55,0,0,0,0.01
2012-3-31,84.4,72.3,65.7,72.5,66.2,60.9,94,82,67,29.64,29.55,0,0,0,0.01
2012-4-1,87.1,75.5,67.6,69.2,66.7,64.8,92,76,53,29.57,29.43,0,0,0,0.01
2012-4-2,82.2,73.0,67.6,70.5,65.8,61.2,88,79,65,29.51,29.39,0,0,0,0.00
2012-4-3,77.4,68.8,61.9,71.3,64.5,58.6,91,86,80,29.62,29.47,0,0,0,0.16
2012-4-4,77.0,65.9,59.9,61.8,58.7,52.9,96,79,51,29.68,29.53,0,0,0,0.00
2012-4-5,75.4,65.5,56.1,58.4,54.6,50.0,84,69,50,29.71,29.56,0,0,0,0.00
2012-4-6,80.4,67.1,54.3,61.4,56.3,49.4,88,70,49,29.82,29.71,0,0,0,0.00
2012-4-7,84.6,71.4,59.7,67.1,60.5,53.2,84,69,54,29.97,29.80,0,0,0,0.00
2012-4-8,70.3,66.0,61.0,64.1,61.1,57.7,90,84,75,30.04,29.94,0,0,0,0.22
2012-4-9,79.9,67.9,59.4,68.9,62.4,57.3,94,83,65,29.98,29.82,0,0,0,0.01
2012-4-10,85.3,73.2,63.5,67.0,63.2,59.1,91,73,47,29.89,29.80,0,0,0,0.00
2012-4-11,81.7,71.1,62.4,68.9,62.4,56.9,89,75,60,29.90,29.79,0,0,0,0.00
2012-4-12,81.0,69.0,59.2,65.4,60.3,54.7,86,74,55,29.85,29.69,0,0,0,0.00
2012-4-13,81.9,72.4,66.2,68.5,64.9,61.9,90,78,60,29.77,29.63,0,0,0,0.00
2012-4-14,81.0,74.5,69.8,69.1,66.8,63.8,87,77,66,29.67,29.49,0,0,0,0.00
2012-4-15,74.8,68.4,57.7,68.6,60.7,50.8,86,77,60,29.69,29.42,0,0,0,0.20
2012-4-16,79.0,63.8,53.2,61.3,53.2,48.1,87,70,50,29.94,29.66,0,0,0,0.01
2012-4-17,80.8,65.8,51.8,58.6,52.3,46.0,89,64,41,30.03,29.92,0,0,0,0.00
2012-4-18,81.5,66.3,52.3,59.9,52.5,45.0,85,63,37,29.96,29.77,9,0,10,0.00
2012-4-19,84.4,69.6,57.2,60.6,54.7,47.7,76,60,42,29.78,29.53,0,0,0,0.00
2012-4-20,69.1,63.2,54.7,61.0,55.4,48.0,87,76,63,29.80,29.47,0,0,0,0.09
2012-4-21,77.0,60.2,47.7,52.1,46.4,41.6,86,63,38,29.83,29.74,0,0,0,0.01
2012-4-22,77.2,65.5,52.2,56.0,47.7,40.6,84,55,30,29.94,29.77,0,0,0,0.00
2012-4-23,78.3,62.4,50.7,48.6,43.4,40.2,69,51,33,30.02,29.82,0,0,0,0.00
2012-4-24,86.4,68.4,52.9,58.6,51.0,43.0,76,55,38,29.83,29.60,0,0,0,0.00
2012-4-25,89.8,75.7,64.9,69.8,64.0,57.3,86,68,51,29.65,29.50,0,0,0,0.00
2012-4-26,88.0,77.7,69.6,72.1,67.1,63.2,80,70,57,29.61,29.53,0,0,0,0.00
2012-4-27,89.4,77.2,67.6,67.1,64.6,61.8,85,67,44,29.62,29.48,0,0,0,0.00
2012-4-28,88.5,77.9,68.9,67.4,64.7,62.6,82,65,46,29.66,29.54,0,0,0,0.00
2012-4-29,89.1,77.6,68.9,68.6,64.0,60.8,86,65,42,29.77,29.65,0,0,0,0.00
2012-4-30,87.4,78.0,72.0,71.2,68.0,63.7,86,72,55,29.78,29.64,0,0,0,0.00
2012-5-1,90.3,77.8,70.2,68.8,66.3,63.2,88,69,47,29.72,29.57,0,0,0,0.00
2012-5-2,93.6,78.6,70.5,70.0,66.8,64.0,85,68,46,29.69,29.59,0,0,0,0.00
2012-5-3,95.4,80.6,70.3,71.5,67.9,63.2,85,67,45,29.72,29.62,0,0,0,0.00
2012-5-4,90.7,80.3,71.6,73.7,69.2,62.1,86,70,50,29.76,29.51,0,0,0,0.01
2012-5-5,95.5,81.4,70.3,74.0,67.2,57.6,79,63,48,29.73,29.56,0,0,0,0.00
2012-5-6,91.8,81.2,74.7,71.5,68.8,63.0,83,67,39,29.66,29.54,0,0,0,0.00
2012-5-7,89.4,78.5,70.2,71.7,67.8,64.0,85,71,52,29.68,29.56,0,0,0,0.00
2012-5-8,75.0,70.1,66.7,66.4,63.7,61.6,88,80,73,29.78,29.68,0,0,0,2.20
2012-5-9,93.7,73.2,63.0,61.9,55.8,46.1,82,58,28,29.83,29.71,0,0,0,0.00
2012-5-10,83.1,72.2,59.2,58.6,53.9,47.4,81,55,33,29.74,29.60,0,0,0,0.00
2012-5-11,78.4,70.0,66.2,66.8,62.0,56.8,88,76,61,29.74,29.58,0,0,0,0.82
2012-5-12,70.9,66.9,65.1,63.0,61.7,60.5,88,83,74,29.92,29.74,0,0,0,0.01
2012-5-13,88.0,71.7,62.2,64.4,60.5,58.1,88,70,42,29.94,29.83,0,0,0,0.01
2012-5-14,88.5,73.3,62.4,63.8,59.3,55.4,83,63,43,29.89,29.76,0,0,0,0.00
2012-5-15,93.0,74.1,64.8,61.2,57.7,51.4,77,59,30,29.86,29.77,0,0,0,0.00
2012-5-16,98.4,76.1,62.6,64.9,59.3,55.8,84,59,33,29.84,29.73,0,0,0,0.00
2012-5-17,101.3,77.7,63.3,63.4,58.7,54.9,79,55,27,29.80,29.67,0,0,0,0.00
2012-5-18,96.4,78.9,67.6,64.2,59.8,56.3,77,54,30,29.72,29.60,0,0,0,0.00
2012-5-19,97.9,79.3,68.0,66.6,60.3,56.5,83,55,28,29.75,29.64,0,0,0,0.00
2012-5-20,101.5,79.6,69.1,66.0,61.4,58.3,75,56,29,29.94,29.74,0,0,0,0.00
2012-5-21,102.0,78.6,66.0,67.0,61.6,57.5,78,58,30,29.93,29.80,0,0,0,0.00
2012-5-22,102.6,79.6,65.1,68.6,60.8,53.7,69,54,31,29.83,29.58,0,0,0,0.00
2012-5-23,98.1,82.2,72.0,65.4,62.3,57.8,71,53,31,29.59,29.37,0,0,0,0.00
2012-5-24,96.1,82.9,74.5,71.2,67.7,63.4,76,61,41,29.50,29.36,0,0,0,0.00
2012-5-25,99.5,83.7,73.9,72.5,69.6,66.8,82,64,39,29.70,29.50,0,0,0,0.00
2012-5-26,101.8,83.8,75.4,71.1,68.4,62.3,80,62,33,29.80,29.68,0,0,0,0.00
2012-5-27,102.6,82.5,72.3,68.9,64.9,61.2,83,58,31,29.77,29.61,0,0,0,0.00
2012-5-28,105.8,83.8,72.9,73.1,67.1,61.0,79,59,34,29.76,29.54,0,0,0,0.07
2012-5-29,106.3,81.8,69.6,76.5,68.8,63.1,84,67,35,29.77,29.50,0,0,0,0.56
2012-5-30,88.5,76.0,67.6,69.8,65.0,60.5,83,70,48,29.74,29.47,0,0,0,0.81
2012-5-31,84.6,74.2,67.8,67.3,62.6,51.8,87,69,46,29.73,29.40,0,0,0,0.54
2012-6-1,89.2,73.5,60.1,60.2,55.2,50.9,74,54,34,29.78,29.64,0,0,0,0.00
2012-6-2,96.1,81.7,68.9,71.7,63.6,54.8,78,56,37,29.69,29.57,0,0,0,0.00
2012-6-3,95.9,84.2,74.1,72.7,68.8,63.4,83,62,41,29.67,29.56,0,0,0,0.00
2012-6-4,96.3,82.8,73.8,75.9,71.2,66.9,86,69,50,29.69,29.53,0,0,0,0.00
2012-6-5,97.5,83.9,74.3,76.1,70.1,62.1,84,64,45,29.61,29.46,0,0,0,0.07
2012-6-6,91.6,79.8,69.6,75.3,70.5,65.6,89,74,56,29.67,29.51,0,0,0,1.30
2012-6-7,82.8,73.2,69.1,68.3,66.1,63.8,91,79,55,29.77,29.62,0,0,0,0.30
2012-6-8,91.2,79.1,69.3,67.0,64.7,62.6,84,63,41,29.76,29.62,0,0,0,0.00
2012-6-9,93.7,81.5,70.5,71.5,68.0,63.7,85,65,47,29.64,29.48,0,0,0,0.00
2012-6-10,93.7,83.5,74.3,73.3,70.3,67.4,84,66,50,29.55,29.48,0,0,0,0.00
2012-6-11,106.5,86.8,77.2,78.2,73.4,70.3,85,66,40,29.68,29.50,0,0,0,0.00
2012-6-12,90.5,81.1,73.4,74.5,67.3,63.6,74,64,48,29.85,29.67,0,0,0,0.00
2012-6-13,88.2,78.1,70.5,72.9,68.4,65.1,88,73,57,29.84,29.63,0,0,0,0.00
2012-6-14,96.1,83.7,74.8,74.7,71.7,68.7,88,69,46,29.72,29.61,0,0,0,0.00
2012-6-15,95.4,83.4,76.1,74.3,71.9,68.4,87,70,47,29.76,29.65,0,0,0,0.00
2012-6-16,93.4,82.3,74.3,74.7,70.1,65.9,80,68,49,29.82,29.72,0,0,0,0.00
2012-6-17,95.4,81.9,73.0,73.2,69.4,66.9,86,67,46,29.80,29.59,0,0,0,0.00
2012-6-18,94.6,83.2,73.0,71.7,68.4,65.6,79,62,40,29.62,29.54,0,0,0,0.00
2012-6-19,91.8,80.5,74.8,73.3,70.2,67.7,85,72,49,29.70,29.59,0,0,0,0.06
2012-6-20,94.5,82.8,74.5,72.6,70.0,67.6,87,67,45,29.74,29.67,0,0,0,0.00
2012-6-21,98.2,84.2,74.7,72.3,69.3,65.6,85,63,40,29.82,29.68,0,0,0,0.00
2012-6-22,100.2,86.6,73.9,71.7,68.7,65.2,84,57,35,29.74,29.60,0,0,0,0.00
2012-6-23,97.5,87.2,76.6,72.6,68.0,63.8,77,55,35,29.70,29.61,0,0,0,0.00
2012-6-24,103.5,86.4,72.1,70.2,65.4,60.4,78,53,28,29.74,29.63,0,0,0,0.00
2012-6-25,102.9,89.5,75.0,70.5,66.8,64.3,74,49,31,29.69,29.55,0,0,0,0.00
2012-6-26,106.0,91.7,77.9,73.9,69.6,64.8,78,51,29,29.58,29.49,0,0,0,0.00
2012-6-27,102.9,89.2,78.6,73.4,66.2,57.9,69,49,24,29.70,29.56,0,0,0,0.00
2012-6-28,101.7,89.1,78.3,69.2,64.6,59.6,65,46,27,29.80,29.69,0,0,0,0.00
2012-6-29,100.6,88.3,78.4,72.3,67.5,63.7,76,52,32,29.78,29.62,0,0,0,0.00
2012-6-30,100.8,87.3,77.5,73.0,69.1,64.4,78,57,33,29.69,29.58,0,0,0,0.00
2012-7-1,92.3,82.2,76.6,76.3,70.7,68.2,80,69,51,29.77,29.67,0,0,0,0.05
2012-7-2,93.6,83.5,76.6,74.8,71.3,69.1,83,68,48,29.85,29.72,0,0,0,0.00
2012-7-3,98.8,85.6,77.7,71.8,68.4,62.1,78,59,31,29.82,29.66,0,0,0,0.00
2012-7-4,113.2,86.9,75.9,73.7,68.9,63.6,84,58,24,29.78,29.65,0,0,0,0.00
2012-7-5,103.8,87.4,76.5,72.9,67.5,63.2,79,54,30,29.80,29.68,0,0,0,0.00
2012-7-6,102.6,88.4,76.5,71.7,67.4,64.5,73,52,32,29.80,29.68,0,0,0,0.00
2012-7-7,98.2,82.5,74.7,71.4,69.3,66.5,85,66,38,29.83,29.70,0,0,0,2.13
2012-7-8,97.3,82.0,74.3,77.4,72.4,69.0,89,74,45,29.78,29.65,0,0,0,0.03
2012-7-9,98.4,82.8,74.1,77.3,72.5,67.9,88,73,45,29.73,29.59,0,0,0,0.00
2012-7-10,95.2,80.7,73.6,75.8,71.3,67.7,87,74,48,29.72,29.60,0,0,0,0.00
2012-7-11,95.4,82.1,72.0,75.7,71.1,67.7,90,71,46,29.72,29.61,0,0,0,0.05
2012-7-12,95.0,81.8,71.8,74.2,70.8,67.0,90,71,47,29.71,29.64,0,0,0,0.01
2012-7-13,93.6,83.0,74.5,74.4,71.1,68.5,89,69,49,29.76,29.67,0,0,0,0.00
2012-7-14,95.9,82.1,73.9,74.3,70.0,65.6,86,68,43,29.78,29.67,0,0,0,0.00
2012-7-15,90.1,78.6,70.7,76.4,69.6,65.1,87,75,58,29.77,29.66,0,0,0,0.00
2012-7-16,94.5,82.4,72.1,74.5,70.9,67.0,90,70,48,29.77,29.64,0,0,0,0.00
2012-7-17,98.4,86.0,75.4,73.8,71.0,68.5,85,63,42,29.73,29.61,0,0,0,0.00
2012-7-18,100.8,86.9,75.6,74.5,71.5,68.8,85,62,38,29.76,29.62,0,0,0,0.00
2012-7-19,102.2,88.5,76.6,72.5,69.8,66.2,81,57,33,29.80,29.64,0,0,0,0.00
2012-7-20,102.2,87.8,77.4,72.7,69.3,63.8,79,56,33,29.74,29.59,0,0,0,0.00
2012-7-21,106.7,88.7,76.3,75.5,69.2,64.6,76,55,26,29.63,29.50,0,0,0,0.06
2012-7-22,101.8,88.4,76.8,74.5,71.1,68.0,81,59,36,29.70,29.59,0,0,0,0.00
2012-7-23,101.5,88.5,78.8,73.8,70.2,66.7,77,57,34,29.76,29.67,0,0,0,0.00
2012-7-24,99.9,87.6,77.4,73.5,70.7,68.2,81,59,39,29.74,29.56,0,0,0,0.00
2012-7-25,106.0,88.4,78.4,73.7,71.0,66.5,82,59,33,29.62,29.46,0,0,0,0.00
2012-7-26,100.4,88.0,78.1,73.6,71.5,68.6,81,60,39,29.57,29.38,0,0,0,0.00
2012-7-27,98.8,87.7,78.8,73.9,69.8,63.9,75,57,34,29.67,28.98,0,0,0,0.00
2012-7-28,106.7,90.7,77.4,73.0,68.8,62.3,78,52,26,29.74,28.53,0,0,0,0.00
2012-7-29,107.4,91.6,77.4,67.7,64.2,59.8,65,43,23,29.70,28.45,0,0,0,0.00
2012-7-30,105.3,91.4,78.1,70.8,66.8,60.8,70,47,24,29.66,28.37,0,0,0,0.00
2012-7-31,106.0,90.5,76.3,71.3,67.3,63.3,75,49,29,29.63,28.40,0,0,0,0.00
2012-8-1,108.9,92.2,79.2,70.2,67.9,65.0,74,48,25,29.59,28.64,0,0,0,0.00
2012-8-2,104.5,91.5,78.8,68.5,65.5,61.2,64,44,27,29.50,28.57,0,0,0,0.00
2012-8-3,87.8,80.9,79.9,68.7,67.6,66.8,66,64,50,28.84,28.44,0,0,0,0.00
2012-8-4,79.9,79.9,79.9,67.5,67.5,67.5,66,66,66,28.44,28.44,0,0,0,0.00
2012-8-5,79.9,79.9,79.9,67.5,67.5,67.5,66,66,66,28.44,28.44,0,0,0,0.00
2012-8-6,79.9,79.9,79.9,67.5,67.5,67.5,66,66,66,28.44,28.44,0,0,0,0.00
2012-8-7,104.0,84.4,79.9,69.3,67.2,62.3,66,58,31,29.68,28.44,0,0,0,0.00
2012-8-8,94.3,85.6,77.7,72.6,69.6,65.1,71,60,42,29.80,29.64,0,0,0,0.00
2012-8-9,105.8,88.3,74.3,73.4,68.2,63.4,84,55,27,29.77,29.54,0,0,0,0.00
2012-8-10,97.3,87.0,77.9,69.3,62.6,51.5,72,47,23,29.69,29.57,0,0,0,0.00
2012-8-11,99.3,83.6,69.1,62.6,56.7,52.2,59,42,24,29.75,29.64,0,0,0,0.00
2012-8-12,103.1,87.9,74.8,70.1,66.5,61.9,71,51,34,29.74,29.58,0,0,0,0.00
2012-8-13,101.7,90.4,80.2,70.6,61.3,47.7,67,42,18,29.75,29.65,0,0,0,0.00
2012-8-14,111.2,86.7,72.1,72.2,63.3,56.0,86,48,22,29.73,29.54,0,0,0,0.13
2012-8-15,97.5,83.4,72.5,75.8,71.8,66.7,91,70,43,29.72,29.60,0,0,0,0.84
2012-8-16,90.9,83.8,78.1,73.3,69.3,65.1,81,63,45,29.81,29.66,0,0,0,0.00
2012-8-17,99.5,84.1,73.4,75.7,71.9,67.6,86,69,41,29.78,29.61,0,0,0,1.02
2012-8-18,85.1,74.9,69.3,72.0,67.6,64.7,88,78,62,29.75,29.58,0,0,0,1.75
2012-8-19,92.7,77.4,66.6,70.5,65.0,58.7,91,69,36,29.74,29.60,0,0,0,0.01
2012-8-20,91.4,78.5,68.0,67.3,61.1,53.1,88,59,30,29.76,29.67,0,0,0,0.00
2012-8-21,88.2,76.3,70.9,68.1,63.8,59.7,77,66,50,29.84,29.73,0,0,0,0.01
2012-8-22,92.5,77.9,65.3,66.9,61.0,58.1,86,59,33,29.89,29.76,0,0,0,0.00
2012-8-23,93.2,79.7,68.4,69.6,63.4,57.7,83,59,39,29.84,29.69,0,0,0,0.00
2012-8-24,94.6,82.2,72.3,73.4,69.2,64.3,85,66,45,29.74,29.58,0,0,0,0.00
2012-8-25,91.0,83.5,77.2,73.7,70.9,68.9,84,67,49,29.69,29.60,0,0,0,0.00
2012-8-26,89.8,81.1,75.7,75.2,71.9,69.7,86,74,57,29.82,29.68,0,0,0,0.00
2012-8-27,94.6,83.5,74.8,73.6,70.6,66.5,87,67,42,29.83,29.67,0,0,0,0.00
2012-8-28,93.7,84.1,75.7,76.4,69.6,60.6,82,63,39,29.76,29.61,0,0,0,0.02
2012-8-29,95.4,83.4,72.3,67.2,61.3,56.1,61,48,37,29.67,29.51,0,0,0,0.00
2012-8-30,94.3,84.3,75.9,69.3,64.6,59.1,65,53,38,29.56,29.43,0,0,0,0.04
2012-8-31,100.2,85.9,77.2,73.0,68.8,65.4,73,58,38,29.71,29.52,0,0,0,0.00
2012-9-1,98.8,87.3,77.7,74.7,71.5,67.7,83,61,39,29.81,29.69,0,0,0,0.00
2012-9-2,100.4,87.2,76.1,72.7,69.5,65.4,82,58,36,29.79,29.65,0,0,0,0.00
2012-9-3,107.1,87.9,77.2,73.4,68.8,64.4,77,55,30,29.76,29.62,0,0,0,0.00
2012-9-4,102.0,87.6,77.0,75.5,69.4,63.7,80,57,34,29.72,29.58,0,0,0,0.00
2012-9-5,108.9,87.8,75.9,73.2,67.4,62.1,78,53,26,29.68,29.55,0,0,0,0.00
2012-9-6,103.6,88.6,76.5,70.8,65.5,60.9,68,48,31,29.70,29.58,0,0,0,0.00
2012-9-7,102.7,89.0,76.3,71.2,66.0,63.3,71,49,29,29.66,29.51,0,0,0,0.00
2012-9-8,84.6,74.7,65.8,64.3,55.2,46.9,86,54,28,29.86,29.64,0,0,0,0.06
2012-9-9,90.7,74.1,58.6,54.1,49.0,43.0,73,44,22,29.92,29.80,0,0,0,0.00
2012-9-10,95.7,77.1,60.8,55.1,51.5,48.8,69,44,22,29.90,29.76,0,0,0,0.00
2012-9-11,92.5,78.7,65.8,59.4,54.2,50.7,64,44,26,29.88,29.74,0,0,0,0.00
2012-9-12,96.1,80.6,67.3,67.4,60.8,53.8,75,53,32,29.85,29.71,0,0,0,0.00
2012-9-13,88.2,79.5,74.1,73.5,68.7,64.9,84,70,55,29.90,29.77,0,0,0,0.00
2012-9-14,74.3,70.5,66.4,67.6,64.0,61.9,88,80,71,29.97,29.88,0,0,0,0.00
2012-9-15,80.8,70.3,64.2,64.8,61.4,59.8,87,74,56,29.96,29.84,0,0,0,0.00
2012-9-16,72.0,69.4,67.1,65.5,63.0,59.7,87,80,70,29.86,29.74,0,0,0,0.19
2012-9-17,92.1,73.7,68.0,69.3,65.4,63.4,89,76,43,29.74,29.56,0,0,0,0.01
2012-9-18,82.6,71.9,64.4,63.4,54.2,38.2,90,60,21,29.85,29.64,0,0,0,0.00
2012-9-19,88.3,71.0,55.8,55.4,49.4,46.0,78,50,25,29.91,29.78,0,0,0,0.00
2012-9-29,71.8,69.1,67.3,68.5,66.2,64.6,92,90,88,29.67,29.57,0,0,0,1.41
2012-9-30,71.1,65.5,62.2,65.2,59.3,51.1,93,81,55,29.64,29.56,0,0,0,0.53
2012-10-1,82.0,69.8,59.2,58.3,53.3,47.1,88,60,30,29.62,29.54,0,0,0,0.00
2012-10-2,79.2,69.9,63.0,56.5,54.9,51.8,77,60,40,29.72,29.61,0,0,0,0.00
2012-10-3,84.2,71.2,60.8,58.3,54.9,52.3,79,58,34,29.79,29.70,0,0,0,0.00
2012-10-4,86.7,74.8,64.4,68.4,62.1,53.5,84,65,50,29.89,29.79,0,0,0,0.00
2012-10-5,84.4,73.6,57.4,70.9,63.4,48.8,87,71,56,29.86,29.74,0,0,0,0.00
2012-10-6,57.4,53.5,47.8,49.7,45.4,39.2,87,74,59,30.00,29.85,0,0,0,0.00
2012-10-7,53.2,50.1,47.1,41.2,38.5,34.7,75,65,50,30.06,29.93,0,0,0,0.00
2012-10-8,69.6,54.8,42.3,46.2,41.0,34.6,77,61,41,30.01,29.83,0,0,0,0.00
2012-10-9,76.6,62.6,51.6,64.1,54.3,43.8,82,75,65,29.84,29.63,0,0,0,0.00
2012-10-10,70.2,66.0,62.4,64.9,61.3,58.0,92,85,75,29.91,29.72,0,0,0,0.01
2012-10-11,85.3,73.3,65.3,73.6,67.2,60.0,91,82,65,29.92,29.82,0,0,0,0.00
2012-10-12,85.1,75.7,70.3,70.6,68.1,65.3,92,78,58,29.95,29.85,0,0,0,0.00
2012-10-13,82.9,75.6,70.3,70.9,68.1,65.3,88,78,61,29.85,29.59,0,0,0,0.11
2012-10-14,80.1,71.6,64.6,70.2,58.5,52.2,91,66,40,29.85,29.61,0,0,0,1.13
2012-10-15,83.8,68.4,56.5,56.2,51.4,48.4,80,57,32,29.87,29.73,0,0,0,0.00
2012-10-16,74.1,65.4,60.3,61.0,55.0,48.1,87,70,57,29.75,29.46,0,0,0,0.00
2012-10-17,86.4,72.0,64.8,69.6,59.6,47.9,91,69,32,29.56,29.30,0,0,0,0.00
2012-10-18,73.9,64.3,53.2,48.5,35.9,25.2,58,37,18,29.76,29.56,0,0,0,0.00
2012-10-19,76.5,62.3,51.3,41.0,35.4,23.7,67,41,17,29.79,29.65,0,0,0,0.00
2012-10-20,84.6,68.6,53.1,66.4,54.7,37.1,77,62,47,29.67,29.51,0,0,0,0.00
2012-10-21,87.3,78.6,73.2,71.9,69.3,65.6,85,74,57,29.67,29.55,0,0,0,0.00
2012-10-22,85.1,75.3,71.1,71.4,68.1,64.2,89,79,57,29.77,29.65,0,0,0,0.59
2012-10-23,90.5,74.9,69.1,71.3,67.0,63.2,89,77,51,29.74,29.66,0,0,0,0.00
2012-10-24,84.6,73.8,66.7,68.1,64.6,62.3,91,74,55,29.77,29.61,0,0,0,0.00
2012-10-25,79.3,67.6,52.7,68.9,61.3,43.6,90,80,67,29.83,29.58,0,0,0,0.32
2012-10-26,54.0,49.8,43.9,43.9,39.8,34.0,81,69,53,30.06,29.82,0,0,0,0.11
2012-10-27,66.9,47.4,37.8,37.2,33.1,30.3,79,59,32,30.08,29.91,0,0,0,0.00
2012-10-28,63.0,49.6,37.4,36.5,30.5,25.3,78,51,25,30.05,29.94,0,0,0,0.00
2012-10-29,69.8,52.3,38.8,39.4,34.0,28.8,72,52,31,30.06,29.88,0,0,0,0.00
2012-10-30,75.6,57.6,42.4,45.8,40.3,33.5,78,55,33,29.88,29.70,0,0,0,0.00
2012-10-31,81.7,64.6,52.2,51.3,47.2,43.5,81,56,31,29.77,29.70,0,0,0,0.00
2012-11-1,84.2,66.1,49.8,56.9,50.4,41.8,85,59,34,29.81,29.68,0,0,0,0.00
2012-11-2,85.6,70.5,57.7,60.8,54.2,49.1,82,59,29,29.77,29.66,0,0,0,0.00
2012-11-3,83.1,69.8,61.9,67.0,60.1,49.8,92,72,52,29.86,29.72,0,0,0,0.74
2012-11-4,75.6,62.4,53.4,57.7,50.5,43.0,78,65,52,29.90,29.79,0,0,0,0.00
2012-11-5,73.2,61.7,53.2,57.6,45.6,33.1,91,60,30,29.87,29.75,0,0,0,0.01
2012-11-6,70.5,56.8,46.0,45.7,41.9,37.5,74,59,39,29.91,29.80,0,0,0,0.00
2012-11-7,75.0,61.8,47.7,46.0,41.6,38.1,73,50,32,29.95,29.84,0,0,0,0.00
2012-11-8,78.4,68.8,59.7,58.3,50.0,41.1,68,52,39,29.89,29.74,0,0,0,0.00
2012-11-9,78.1,70.7,66.9,63.1,57.9,55.5,74,64,56,29.77,29.72,0,0,0,0.00
2012-11-10,79.9,70.4,63.0,61.7,59.3,56.6,87,69,48,29.77,29.62,0,0,0,0.00
2012-11-11,75.9,63.2,44.2,66.9,56.0,36.5,86,77,55,30.02,29.55,0,0,0,0.06
2012-11-12,57.7,44.9,35.1,36.6,27.9,23.2,76,54,28,30.25,30.02,0,0,0,0.01
2012-11-13,58.6,46.7,34.3,35.0,28.8,24.0,73,51,32,30.27,30.10,0,0,0,0.00
2012-11-14,63.0,50.6,39.9,36.8,33.1,28.5,73,52,33,30.19,30.04,0,0,0,0.00
2012-11-15,62.2,47.9,36.0,37.4,31.7,26.7,73,55,35,30.10,29.99,0,0,0,0.00
2012-11-16,64.2,48.7,36.0,38.3,32.2,27.5,78,55,31,30.17,30.06,0,0,0,0.00
2012-11-17,67.5,49.2,35.1,37.8,31.0,25.4,77,52,28,30.17,30.03,0,0,0,0.00
2012-11-18,69.8,53.6,38.5,40.8,35.1,29.0,76,51,27,30.07,29.94,0,0,0,0.00
2012-11-19,71.1,61.9,55.0,52.2,44.7,37.9,64,54,39,30.00,29.87,0,0,0,0.00
2012-11-20,79.3,63.4,51.3,59.0,50.3,42.5,78,63,45,29.96,29.87,0,0,0,0.00
2012-11-21,79.9,62.6,48.7,56.0,46.1,41.6,85,58,31,30.03,29.87,0,0,0,0.00
2012-11-22,75.0,63.9,54.5,52.7,48.5,41.9,77,59,35,29.89,29.77,0,0,0,0.00
2012-11-23,65.1,58.1,43.9,53.0,35.6,21.7,81,47,22,30.17,29.85,0,0,0,0.00
2012-11-24,62.2,47.3,35.4,29.2,24.7,21.1,57,42,24,30.17,29.85,0,0,0,0.00
2012-11-25,73.2,57.7,43.2,53.5,40.0,27.4,73,53,39,29.86,29.61,0,0,0,0.00
2012-11-26,74.7,61.7,47.3,60.5,51.0,35.3,90,70,35,29.98,29.62,0,0,0,0.00
2012-11-27,58.3,48.1,41.5,38.5,34.0,30.3,66,58,46,30.18,29.97,0,0,0,0.00
2012-11-28,65.7,49.0,34.5,41.6,34.3,26.8,83,59,38,30.19,30.01,0,0,0,0.00
2012-11-29,66.7,53.5,40.1,49.7,39.4,29.8,80,60,43,30.01,29.79,0,0,0,0.00
2012-11-30,69.1,60.9,54.5,60.7,55.7,48.3,92,83,73,29.87,29.70,0,0,0,0.00
2012-12-1,81.0,70.8,63.9,65.5,62.1,59.1,91,75,52,29.74,29.60,0,0,0,0.00
2012-12-2,80.1,71.9,66.9,64.9,62.2,58.8,85,72,54,29.80,29.67,0,0,0,0.00
2012-12-3,79.0,70.0,64.2,62.3,59.9,56.9,87,71,51,29.71,29.57,0,0,0,0.00
2012-12-4,71.2,63.7,53.2,60.4,47.4,27.6,87,58,31,29.92,29.65,0,0,0,0.00
2012-12-5,63.0,53.2,44.4,50.6,40.7,30.9,72,63,44,29.94,29.72,0,0,0,0.00
2012-12-6,69.1,56.8,47.1,53.8,49.3,40.6,92,77,58,29.72,29.48,0,0,0,0.00
2012-12-7,72.5,62.2,55.0,58.5,55.6,50.0,91,80,60,29.55,29.45,0,0,0,0.00
2012-12-8,68.0,60.2,53.6,57.0,52.1,47.8,84,75,68,29.59,29.46,0,0,0,0.00
2012-12-9,71.4,62.5,47.8,65.3,54.8,34.2,93,77,54,29.63,29.43,0,0,0,0.00
2012-12-10,42.3,37.4,30.9,24.3,21.2,15.5,76,53,40,29.81,29.67,0,0,0,0.00
2012-12-11,33.1,33.1,33.1,19.1,19.1,19.1,56,56,56,29.80,29.77,0,0,0,0.00
2012-12-12,33.1,33.1,33.1,19.1,19.1,19.1,56,56,56,29.79,29.79,0,0,0,0.00
2012-12-13,64.0,42.8,33.1,29.9,22.5,19.1,56,46,25,29.97,29.79,0,0,0,0.00
2012-12-14,61.3,54.9,47.5,58.2,41.6,26.6,91,62,43,29.94,29.59,0,0,0,0.15
2012-12-15,72.3,61.4,54.7,58.2,47.3,37.3,92,64,29,29.67,29.56,0,0,0,0.25
2012-12-16,72.0,59.4,52.9,50.0,44.4,38.2,76,60,31,29.59,29.44,0,0,0,0.00
2012-12-17,60.6,50.7,43.7,45.7,39.1,34.3,81,65,46,29.67,29.49,0,0,0,0.00
2012-12-18,76.6,57.3,42.8,49.5,39.0,34.5,76,54,25,29.61,29.50,0,0,0,0.00
2012-12-19,77.0,69.3,59.4,65.0,60.2,39.5,90,74,42,29.54,29.32,0,0,0,0.33
2012-12-20,58.6,44.8,39.6,31.4,20.7,8.7,59,40,18,30.15,29.54,0,0,0,0.00
2012-12-21,64.6,46.2,33.4,29.9,22.6,15.1,61,41,21,30.20,30.04,0,0,0,0.00
2012-12-22,65.3,51.0,36.0,47.5,33.7,19.8,71,52,41,30.05,29.77,0,0,0,0.00
2012-12-23,65.8,57.8,45.7,56.5,44.5,28.6,89,63,38,29.77,29.57,0,0,0,0.00
2012-12-24,55.6,43.7,33.8,34.7,30.3,25.7,77,60,43,29.78,29.54,0,0,0,0.00
2012-12-25,47.8,39.1,29.1,44.1,34.8,23.7,93,85,62,29.85,29.33,0,0,0,1.26
2012-12-26,29.7,27.1,22.3,24.0,21.0,16.5,81,77,73,30.03,29.85,0,0,0,0.02
2012-12-27,41.9,33.5,24.1,37.6,29.0,18.8,90,83,79,29.88,29.64,0,0,0,0.05
2012-12-28,40.8,37.7,31.6,38.5,33.6,25.4,93,85,75,29.96,29.61,0,0,0,0.02
2012-12-29,43.7,34.3,27.5,28.0,24.1,20.5,78,67,51,30.18,29.95,0,0,0,0.00
2012-12-30,48.4,38.5,27.9,29.7,25.8,21.0,80,61,41,30.21,29.97,0,0,0,0.00
2012-12-31,48.0,44.4,41.0,45.0,39.3,29.5,92,83,59,29.98,29.71,0,0,0,0.41
2013-1-1,44.8,41.7,37.2,42.4,38.0,32.5,92,87,83,30.02,29.77,0,0,0,0.00